Date String (YYYY-MM-DD hh:mm:ss) UTC,Instrument flags,Ambient pressure (hPa),Sample flow (lpm),Bypass flow (lpm),Sample temperature (°C),Ambient temperature (°C),ASC tube jacket temperature (°C),LED temperature (°C),Box temperature (°C),Sample RH (%),Span deviation,Mass concentration (μg/m³),Mass concentration (μg/m³),Mass concentration (μg/m³)
DateTimeUTC,F1_M11,P_M11,Q1_M11,Q2_M11,T1_M11,T2_M11,T3_M11,T4_M11,T5_M11,U1_M11,ZSPAN_M11,X0_M11,X2_M11,X1_M11
2021-11-29 23:00:00,,0827.2,5.01,0.00,29.9,29.0,00.0,38.7,31.8,10.4,0000.0,0011.69,0002.25,0000.59
2021-11-29 23:01:00,,0827.2,5.00,0.00,29.9,27.1,00.0,38.7,31.3,10.4,0000.0,0010.36,0002.10,0000.57
2021-11-29 23:02:00,,0827.2,5.00,0.00,29.7,25.5,00.0,38.7,30.9,10.6,0000.0,0009.62,0001.97,0000.54
2021-11-29 23:03:00,,0827.2,4.99,0.00,29.6,25.6,00.0,38.7,30.9,10.7,0000.0,0008.50,0001.83,0000.50
2021-11-29 23:04:00,,0827.2,5.00,0.00,29.5,26.1,00.0,38.6,31.0,10.7,0000.0,0008.02,0001.58,0000.46
2021-11-29 23:05:00,,0827.2,5.00,0.00,29.4,26.6,00.0,38.6,31.0,10.7,0000.0,0007.67,0001.38,0000.41
2021-11-29 23:06:00,,0827.2,4.99,0.00,29.4,27.1,00.0,38.5,31.1,10.7,0000.0,0007.24,0001.23,0000.37
2021-11-29 23:07:00,,0827.2,5.00,0.00,29.5,27.5,00.0,38.5,31.2,10.6,0000.0,0004.84,0001.02,0000.34
2021-11-29 23:08:00,,0827.2,5.00,0.00,29.5,27.8,00.0,38.5,31.2,10.6,0000.0,0004.20,0000.87,0000.30
2021-11-29 23:09:00,,0827.2,5.00,0.00,29.5,28.1,00.0,38.5,31.3,10.6,0000.0,0003.59,0000.74,0000.26
2021-11-29 23:10:00,,0827.2,5.00,0.00,29.5,28.3,00.0,38.5,31.4,10.6,0000.0,0002.89,0000.58,0000.22
2021-11-29 23:11:00,,0827.2,5.00,0.00,29.6,28.5,00.0,38.5,31.4,10.5,0000.0,0002.73,0000.54,0000.21
2021-11-29 23:12:00,,0827.2,5.01,0.00,29.6,28.6,00.0,38.5,31.5,10.5,0000.0,0002.62,0000.50,0000.20
2021-11-29 23:13:00,,0827.2,5.01,0.00,29.7,28.8,00.0,38.6,31.5,10.5,0000.0,0001.50,0000.46,0000.18
2021-11-29 23:14:00,,0827.2,4.99,0.00,29.7,28.9,00.0,38.6,31.6,10.5,0000.0,0001.03,0000.39,0000.18
2021-11-29 23:15:00,,0827.2,4.99,0.00,29.8,29.0,00.0,38.6,31.6,10.5,0000.0,0001.01,0000.37,0000.17
2021-11-29 23:16:00,,0827.2,5.00,0.00,29.8,29.0,00.0,38.6,31.7,10.5,0000.0,0000.85,0000.34,0000.17
2021-11-29 23:17:00,,0827.2,5.00,0.00,29.9,29.1,00.0,38.7,31.7,10.4,0000.0,0000.77,0000.33,0000.16
2021-11-29 23:18:00,,0827.2,5.00,0.00,29.9,29.2,00.0,38.7,31.7,10.4,0000.0,0000.93,0000.34,0000.17
2021-11-29 23:19:00,,0827.2,5.00,0.00,29.9,29.2,00.0,38.7,31.8,10.4,0000.0,0001.17,0000.34,0000.17
2021-11-29 23:20:00,,0827.2,5.00,0.00,29.9,27.6,00.0,38.7,31.5,10.4,0000.0,0001.07,0000.32,0000.18
2021-11-29 23:21:00,,0827.2,5.00,0.00,29.8,26.4,00.0,38.7,31.2,10.4,0000.0,0001.25,0000.34,0000.18
2021-11-29 23:22:00,,0827.2,5.00,0.00,29.7,26.5,00.0,38.7,31.2,10.5,0000.0,0001.70,0000.36,0000.18
2021-11-29 23:23:00,,0827.2,4.99,0.00,29.6,26.9,00.0,38.7,31.2,10.6,0000.0,0002.12,0000.39,0000.18
2021-11-29 23:24:00,,0827.2,5.00,0.00,29.6,27.3,00.0,38.6,31.3,10.6,0000.0,0002.28,0000.43,0000.18
2021-11-29 23:25:00,,0827.2,5.00,0.00,29.6,27.6,00.0,38.6,31.3,10.8,0000.0,0003.87,0000.64,0000.20
2021-11-29 23:26:00,,0827.2,5.01,0.00,29.7,27.9,00.0,38.6,31.4,11.0,0000.0,0005.83,0000.90,0000.25
2021-11-29 23:27:00,,0827.2,4.99,0.00,29.7,28.0,00.0,38.6,31.4,10.9,0000.0,0007.85,0001.08,0000.28
2021-11-29 23:28:00,,0827.2,5.00,0.00,29.7,28.2,00.0,38.6,31.5,11.0,0000.0,0008.76,0001.32,0000.32
2021-11-29 23:29:00,,0827.2,5.00,0.00,29.7,28.3,00.0,38.6,31.5,11.0,0000.0,0009.45,0001.52,0000.35
2021-11-29 23:30:00,,0827.2,4.99,0.00,29.7,28.5,00.0,38.6,31.5,11.0,0000.0,0009.98,0001.73,0000.39
2021-11-29 23:31:00,,0827.2,4.99,0.00,29.7,28.5,00.0,38.6,31.5,10.9,0000.0,0011.15,0001.93,0000.43
2021-11-29 23:32:00,,0827.2,5.00,0.00,29.7,28.6,00.0,38.7,31.6,10.9,0000.0,0012.39,0002.07,0000.47
2021-11-29 23:33:00,,0827.2,5.02,0.00,29.8,28.7,00.0,38.7,31.6,10.9,0000.0,0012.71,0002.26,0000.50
2021-11-29 23:34:00,,0827.2,4.99,0.00,29.8,28.8,00.0,38.7,31.6,10.9,0000.0,0013.51,0002.47,0000.54
2021-11-29 23:35:00,,0827.2,5.01,0.00,29.8,28.9,00.0,38.7,31.7,10.9,0000.0,0014.71,0002.65,0000.58
2021-11-29 23:36:00,,0827.2,5.01,0.00,29.9,29.0,00.0,38.7,31.7,10.8,0000.0,0015.43,0002.69,0000.61
2021-11-29 23:37:00,,0827.2,4.99,0.00,29.9,29.1,00.0,38.7,31.8,10.8,0000.0,0016.57,0002.63,0000.62
2021-11-29 23:38:00,,0827.2,5.02,0.00,30.0,29.2,00.0,38.8,31.8,10.8,0000.0,0015.87,0002.69,0000.64
2021-11-29 23:39:00,,0827.2,4.99,0.00,30.0,29.2,00.0,38.8,31.9,10.7,0000.0,0015.77,0002.59,0000.65
2021-11-29 23:40:00,,0827.2,5.00,0.00,30.0,29.0,00.0,38.8,31.8,10.7,0000.0,0015.73,0002.54,0000.65
2021-11-29 23:41:00,,0827.2,5.00,0.00,30.0,27.1,00.0,38.8,31.3,10.8,0000.0,0016.17,0002.51,0000.65
2021-11-29 23:42:00,,0827.2,5.00,0.00,29.8,26.2,00.0,38.8,31.1,10.8,0000.0,0016.34,0002.55,0000.65
2021-11-29 23:43:00,,0827.2,5.01,0.00,29.7,26.4,00.0,38.8,31.1,10.9,0000.0,0015.59,0002.63,0000.65
2021-11-29 23:44:00,,0827.2,4.99,0.00,29.6,26.9,00.0,38.7,31.1,11.0,0000.0,0016.11,0002.71,0000.66
2021-11-29 23:45:00,,0827.2,5.01,0.00,29.6,27.3,00.0,38.7,31.2,11.0,0000.0,0016.61,0002.58,0000.65
2021-11-29 23:46:00,,0827.2,5.02,0.00,29.6,27.6,00.0,38.7,31.3,10.9,0000.0,0017.80,0002.46,0000.63
2021-11-29 23:47:00,,0827.2,4.99,0.00,29.6,27.9,00.0,38.7,31.4,10.9,0000.0,0017.49,0002.43,0000.61
2021-11-29 23:48:00,,0827.2,5.01,0.00,29.7,28.2,00.0,38.7,31.4,10.9,0000.0,0016.42,0002.38,0000.60
2021-11-29 23:49:00,,0827.2,4.99,0.00,29.7,28.3,00.0,38.7,31.5,10.9,0000.0,0016.43,0002.28,0000.58
2021-11-29 23:50:00,,0827.2,4.99,0.00,29.7,28.5,00.0,38.7,31.5,10.9,0000.0,0016.49,0002.27,0000.57
2021-11-29 23:51:00,,0827.2,5.00,0.00,29.8,28.7,00.0,38.7,31.5,10.9,0000.0,0016.17,0002.24,0000.56
2021-11-29 23:52:00,,0827.2,5.00,0.00,29.8,28.8,00.0,38.7,31.6,10.9,0000.0,0015.40,0002.16,0000.54
2021-11-29 23:53:00,,0827.2,5.00,0.00,29.8,28.9,00.0,38.7,31.6,10.9,0000.0,0014.80,0002.03,0000.52
2021-11-29 23:54:00,,0827.1,5.00,0.00,29.9,28.9,00.0,38.7,31.7,10.8,0000.0,0015.04,0001.88,0000.50
2021-11-29 23:55:00,,0827.1,4.98,0.00,29.9,28.9,00.0,38.7,31.7,10.8,0000.0,0014.22,0001.75,0000.47
2021-11-29 23:56:00,,0827.2,5.00,0.00,29.9,29.0,00.0,38.8,31.8,10.8,0000.0,0014.98,0001.81,0000.47
2021-11-29 23:57:00,,0827.1,5.01,0.00,29.9,29.1,00.0,38.8,31.7,10.8,0000.0,0013.86,0001.89,0000.47
2021-11-29 23:58:00,,0827.2,4.99,0.00,30.0,29.1,00.0,38.8,31.8,10.7,0000.0,0013.73,0001.87,0000.48
2021-11-29 23:59:00,,0827.1,5.01,0.00,30.0,29.2,00.0,38.8,31.9,10.7,0000.0,0013.26,0001.90,0000.47
